Location: Los Gatos B&B
(42.6926°N, 77.0646°W)
Time: 21:30:46
(UTC-04:00)

Cosmos 2263 Rocket - Visible Passes

Search period start: 28 March 2017 00:00
Search period end: 07 April 2017 00:00
Orbit: 824 x 848 km, 71.0° (Epoch: 27 March)

Date Brightness Start Highest point End Pass type
(mag) Time Alt. Az. Time Alt. Az. Time Alt. Az.
28 Mar 4.5 02:20:51 10° N 02:22:39 18° N 02:22:39 18° N visible
29 Mar 4.6 02:04:12 10° N 02:05:55 18° N 02:05:55 18° N visible
30 Mar 4.6 01:47:34 10° N 01:49:14 17° N 01:49:14 17° N visible
31 Mar 4.7 01:30:56 10° N 01:32:36 17° NNE 01:32:36 17° NNE visible
31 Mar 4.7 03:14:15 10° NNW 03:14:17 10° NNW 03:14:17 10° NNW visible
01 Apr 4.7 01:14:18 10° N 01:16:01 16° NNE 01:16:01 16° NNE visible
01 Apr 4.7 02:57:30 10° NNW 02:57:42 11° NNW 02:57:42 11° NNW visible
02 Apr 4.6 00:57:41 10° N 00:59:28 16° NNE 00:59:28 16° NNE visible
02 Apr 4.7 02:40:46 10° NNW 02:41:08 12° NNW 02:41:08 12° NNW visible
03 Apr 4.6 00:41:05 10° N 00:42:56 16° NNE 00:42:56 16° NNE visible
03 Apr 4.7 02:24:01 10° NNW 02:24:36 13° NNW 02:24:36 13° NNW visible
04 Apr 4.6 00:24:29 10° N 00:26:25 16° NNE 00:26:25 16° NNE visible
04 Apr 4.6 02:07:18 10° NNW 02:08:06 14° NNW 02:08:06 14° NNW visible
05 Apr 4.6 00:07:54 10° N 00:09:57 15° NNE 00:09:57 15° NNE visible
05 Apr 4.6 01:50:34 10° NNW 01:51:37 16° NNW 01:51:37 16° NNW visible
05 Apr 4.5 23:51:20 10° N 23:53:29 15° NNE 23:53:29 15° NNE visible
06 Apr 4.5 01:33:51 10° NNW 01:35:09 18° NNW 01:35:09 18° NNW visible
06 Apr 4.5 23:34:47 10° N 23:37:02 14° NE 23:37:02 14° NE visible
